GFSMA_con_3kmhel_021.txt.gz
Helicity
124 97 184 39 48 75 66 74 87 122 94 63 111 102 97 58 76 64 106 156 160 136 140 145 144 143 147 155 170 182 187 195 189 161 131 120 76 67 61 52 58 67 74
101 92 66 37 84 101 122 127 162 89 106 108 111 101 77 50 50 74 107 112 157 149 127 128 137 135 141 150 159 170 182 180 185 191 192 170 140 117 67 62 54 58 65
51 64 94 58 110 124 115 131 144 141 138 127 123 109 98 90 128 128 119 63 127 136 151 154 126 129 124 131 147 163 162 164 181 186 190 193 184 190 174 76 67 63 55
71 79 71 124 135 109 147 173 144 151 107 124 114 116 116 105 101 129 61 70 154 187 151 144 173 124 99 141 133 131 144 172 181 183 193 190 199 198 200 199 97 70 63
73 81 129 148 110 138 150 119 138 102 121 111 101 125 131 83 107 90 94 74 154 119 182 146 183 135 145 193 163 150 121 121 164 195 223 232 227 219 213 202 184 120 69
85 87 120 120 112 126 133 171 120 122 117 102 116 192 79 135 96 72 61 103 151 144 136 199 140 92 234 211 183 144 196 188 153 176 223 227 235 245 241 224 205 170 121
80 89 116 116 126 133 157 113 105 108 114 114 143 124 123 46 62 116 52 108 249 199 184 156 89 199 132 147 104 216 151 160 239 198 176 192 211 232 238 231 223 203 167
139 135 157 162 192 150 128 124 142 134 121 110 159 174 141 139 94 203 261 249 122 159 138 180 214 158 160 139 109 118 151 158 117 112 117 155 168 187 208 229 223 217 191
173 162 160 154 138 125 130 139 141 172 135 161 118 196 182 218 238 153 160 152 182 181 189 170 143 148 160 122 109 143 154 111 114 129 142 133 132 141 167 186 195 215 205
123 124 130 128 134 126 127 129 141 257 139 181 158 156 200 243 254 267 178 117 89 104 102 85 92 90 109 78 108 98 99 44 44 92 139 159 154 135 144 166 165 169 203
158 153 140 153 141 119 129 169 185 179 182 165 208 203 229 215 180 216 236 172 99 65 63 73 81 76 43 52 50 49 100 51 68 69 91 134 184 160 122 124 146 177 188
162 135 143 137 123 126 123 157 195 203 187 184 186 186 184 200 175 176 159 135 94 52 44 66 58 67 64 61 56 65 67 106 71 67 73 88 149 196 184 148 167 175 215
127 128 132 122 118 123 151 216 292 150 91 166 207 153 135 101 130 96 77 86 90 59 56 71 54 69 75 76 85 103 120 85 35 33 62 63 113 158 180 179 194 238 217
114 123 111 99 92 107 157 205 154 69 114 129 136 112 97 100 84 96 91 85 95 72 74 75 83 83 68 73 75 73 83 73 51 52 67 48 74 110 131 166 186 175 180
108 109 91 81 93 137 128 118 112 82 111 185 118 124 137 100 97 108 107 96 98 101 94 92 106 57 71 85 76 79 67 38 48 36 50 30 56 80 97 134 162 161 171
87 80 87 99 104 129 118 88 95 84 100 149 110 115 127 98 119 108 85 90 89 87 110 110 108 81 104 85 67 80 77 51 31 33 67 50 67 74 85 115 139 132 78
68 78 91 109 114 104 113 90 37 53 79 83 54 120 109 107 108 119 103 90 84 80 111 140 121 116 105 92 89 77 68 59 56 46 49 92 116 103 87 133 135 135 83
86 84 92 89 90 111 136 94 66 75 73 88 160 131 109 134 130 102 103 89 104 104 139 141 127 108 79 79 65 58 65 56 58 34 -20 65 125 39 66 108 138 128 100
99 90 91 91 155 139 156 106 94 98 114 105 107 124 142 112 95 97 102 110 112 118 152 176 129 96 90 77 63 59 58 66 43 16 10 20 25 45 38 77 102 104 80
106 94 98 106 108 126 121 114 95 107 99 93 116 141 98 100 108 138 102 102 121 146 133 132 109 84 84 63 66 53 44 38 32 29 -17 31 30 17 -2 16 78 64 47
106 107 105 95 100 94 133 154 107 94 104 112 107 76 97 150 127 113 87 91 103 111 113 98 86 92 80 72 82 33 28 30 17 19 40 76 31 -31 -21 27 42 55 60
127 126 117 110 120 150 225 193 132 112 105 95 80 97 87 97 125 108 64 87 73 76 67 74 84 76 65 68 50 13 29 25 53 18 28 26 89 121 64 40 51 32 42
134 122 128 165 135 242 206 156 116 85 86 89 86 84 85 91 100 124 126 84 60 53 80 90 71 72 81 54 40 35 3 15 15 23 29 69 97 78 74 76 49 -10 -14
123 139 130 140 128 239 212 138 87 61 83 86 85 80 76 91 156 118 86 52 43 35 35 74 81 78 47 19 19 16 -9 -7 15 32 53 36 54 65 87 97 32 -4 -20
125 115 118 140 118 203 208 142 85 76 76 73 72 64 107 79 153 95 56 48 37 28 34 59 62 31 24 34 37 32 23 19 12 11 4 -5 13 34 36 11 30 -10 -2
97 125 125 131 150 183 211 150 96 77 78 73 65 76 143 130 103 55 49 53 47 28 27 25 39 18 18 21 59 72 34 27 16 -17 -12 6 9 21 12 3 11 33 34

GFSMA_con_3kmhel_024.txt.gz
Helicity
122 196 147 58 111 207 111 146 144 123 122 95 97 117 131 97 64 52 94 102 102 92 99 86 102 118 127 134 133 143 147 144 148 154 153 170 182 160 126 103 73 65 61
108 104 83 46 82 112 99 113 143 121 126 130 130 152 164 128 108 121 144 149 110 129 166 169 120 107 115 110 123 141 147 152 152 153 149 143 153 191 177 140 141 80 69
81 116 83 48 87 92 120 133 151 150 144 116 124 139 107 130 168 133 120 126 149 206 188 186 184 151 61 49 86 101 133 139 157 169 171 171 177 170 206 209 159 162 92
86 61 67 112 88 98 110 114 114 154 145 128 108 84 113 182 130 116 128 127 108 127 129 144 164 137 84 80 98 112 112 85 100 155 186 219 204 182 173 198 221 185 152
63 84 126 107 80 103 138 172 193 151 127 128 122 119 168 153 177 102 93 106 51 95 169 130 264 239 129 141 159 141 145 154 124 84 124 203 210 215 186 163 185 204 189
79 87 93 91 81 131 178 194 161 134 123 132 121 123 145 146 75 98 134 87 112 201 216 210 179 191 311 302 246 161 144 126 143 190 195 138 180 218 226 208 174 183 204
65 91 188 191 196 213 197 174 162 174 184 146 143 161 180 176 139 108 239 303 321 270 227 187 198 191 202 275 259 192 97 173 214 177 163 162 146 180 228 227 218 193 184
121 167 159 175 221 208 173 174 182 168 183 180 181 164 190 204 139 209 171 210 234 220 193 189 194 180 128 138 159 149 179 160 140 131 119 125 149 152 178 211 220 222 202
178 163 182 193 187 161 147 150 155 166 240 228 159 223 221 243 252 226 262 206 169 140 147 144 146 147 122 114 86 24 103 79 85 96 98 100 124 149 164 167 172 190 208
110 140 162 194 177 155 145 147 169 225 237 224 234 230 264 269 318 294 211 224 213 220 186 143 122 111 115 107 55 48 24 59 42 37 41 48 105 131 143 167 140 160 178
253 221 238 219 178 168 176 170 163 213 243 263 285 308 302 264 239 298 332 258 194 124 105 85 73 94 72 83 83 73 114 135 120 97 46 39 52 88 129 157 173 154 156
196 199 196 159 141 140 145 174 199 268 308 323 262 237 298 281 288 300 235 169 136 97 80 62 69 71 71 104 121 119 113 93 87 69 50 23 32 54 89 120 157 185 205
180 171 155 135 130 128 132 178 211 260 235 175 155 216 232 163 207 192 160 142 129 87 86 95 66 60 67 55 56 87 109 70 60 66 42 33 37 58 77 98 130 139 153
170 150 134 129 123 119 119 173 191 184 167 125 145 164 194 219 185 168 196 184 101 98 84 85 82 66 70 73 120 116 102 104 81 50 52 27 29 36 42 73 100 105 113
127 161 129 123 115 106 130 182 171 151 124 131 164 173 190 224 140 143 180 131 168 145 115 91 81 50 84 108 137 129 113 78 51 40 19 23 36 39 41 62 82 83 92
154 114 112 108 109 106 101 132 142 126 141 95 93 154 182 177 125 160 164 141 149 144 168 126 92 92 149 162 150 128 102 46 32 28 34 49 57 53 40 75 72 87 88
116 118 106 107 95 86 99 179 183 168 150 118 98 136 133 54 175 161 140 162 162 158 150 137 126 140 154 125 68 89 71 75 82 48 40 47 40 39 93 103 73 84 85
122 127 111 102 106 88 180 156 143 149 139 119 148 174 148 150 170 161 155 179 161 151 129 117 136 133 108 86 98 89 84 65 68 52 47 57 8 21 72 85 51 57 68
138 162 122 116 100 101 147 182 161 159 159 175 162 159 154 164 134 153 177 144 112 117 142 155 135 121 123 96 77 87 74 80 60 39 43 19 13 -33 28 5 27 32 58
154 165 117 107 97 100 170 203 224 182 145 139 156 142 136 137 183 152 131 109 116 122 121 131 133 109 99 82 96 84 75 69 52 49 40 25 4 -16 27 23 43 29 41
160 121 131 117 107 144 216 270 253 164 166 161 174 146 137 157 125 156 114 105 121 116 110 101 103 102 88 86 77 82 80 53 40 54 41 -1 31 -48 28 -9 12 32 49
128 164 170 134 193 228 230 224 183 159 136 136 143 149 142 119 154 115 92 140 95 122 108 124 134 107 93 81 87 79 44 35 46 17 28 -44 41 76 101 44 47 55 65
149 169 153 160 177 288 243 206 164 128 100 112 126 135 120 129 187 167 161 137 93 54 55 98 100 95 111 127 99 59 48 56 27 23 44 -12 16 3 54 126 38 11 -11
142 145 163 147 181 286 254 205 165 121 96 103 130 102 107 137 160 143 108 76 74 68 70 86 84 87 102 67 68 68 67 60 49 22 38 -12 9 32 46 61 35 13 -19
121 142 144 145 175 278 241 220 167 129 117 109 105 96 98 122 191 144 87 71 60 62 56 38 16 35 37 21 53 95 115 84 65 51 28 16 19 42 59 50 19 7 -28
120 144 200 225 242 264 233 201 159 138 130 110 104 96 155 188 139 89 83 81 71 59 65 56 60 73 46 45 8 45 84 118 93 58 39 -13 -23 15 7 29 8 -5 40

GFSMA_con_3kmhel_027.txt.gz
Helicity
114 109 129 127 170 167 204 164 133 143 143 160 173 162 139 121 144 142 128 101 100 123 122 141 140 109 89 88 88 111 140 140 147 147 145 140 151 170 139 126 155 154 144
106 99 94 123 128 82 74 103 129 148 152 151 158 152 129 148 167 123 107 109 113 164 160 154 131 118 61 22 -16 15 67 125 137 151 148 142 153 149 181 168 144 154 149
106 90 102 122 83 90 107 111 158 180 186 183 159 135 130 146 137 128 113 131 82 126 145 159 175 167 81 77 67 42 14 31 58 115 139 139 138 140 137 175 172 143 145
79 102 115 91 97 128 125 146 143 143 143 147 148 139 142 130 151 117 115 128 103 111 164 175 197 157 176 189 118 96 109 98 83 56 74 139 179 181 162 141 166 177 152
99 107 100 94 99 150 173 151 141 131 113 113 114 108 102 137 133 122 140 204 279 240 201 108 253 281 317 326 298 238 149 111 90 96 121 95 61 136 178 187 174 179 191
140 143 113 88 121 168 183 163 182 150 132 118 116 118 130 154 143 105 179 219 258 319 301 336 313 280 294 264 232 188 170 101 135 47 105 118 121 80 175 229 240 212 201
157 146 128 136 169 188 170 154 147 132 110 129 123 106 118 151 211 172 195 232 229 238 242 224 190 185 183 209 177 143 127 126 24 38 114 136 142 152 139 186 231 257 229
132 107 127 172 183 157 153 150 135 118 117 142 120 98 111 118 220 173 152 138 167 175 205 189 162 105 59 38 51 82 74 8 14 54 64 64 81 112 135 150 168 209 234
166 138 137 165 135 128 105 94 99 126 131 133 161 161 185 208 135 157 122 119 185 194 205 186 188 177 140 102 86 73 11 -8 67 64 46 31 37 57 87 123 150 161 214
220 285 213 202 202 176 154 124 129 134 167 168 188 205 208 205 211 235 235 200 234 222 137 84 100 125 140 132 171 188 141 81 69 54 44 38 30 19 28 83 120 158 197
281 317 282 227 215 154 159 166 161 143 177 217 225 223 214 233 234 272 286 279 227 141 117 146 61 45 64 72 72 91 67 37 62 75 69 58 43 26 20 47 90 113 137
308 333 318 218 168 150 142 157 158 205 225 228 223 224 228 270 272 294 305 256 212 134 123 96 80 57 36 45 64 71 63 92 81 90 58 42 41 29 31 52 76 96 121
293 254 222 200 155 130 145 158 153 155 168 170 177 193 226 279 260 244 264 236 243 174 103 123 71 62 72 84 77 60 95 62 48 45 44 34 17 10 29 48 59 75 107
293 239 210 190 141 134 151 152 151 133 143 163 177 191 221 216 192 223 246 256 262 167 146 103 91 70 85 61 117 125 70 82 58 37 39 22 16 17 20 42 45 37 61
243 236 192 146 142 123 122 137 140 137 140 145 136 137 197 212 188 192 220 242 201 200 166 126 114 77 114 136 109 82 59 37 19 23 21 12 27 46 57 66 57 40 47
174 156 148 145 124 94 96 93 129 141 158 136 107 152 197 219 161 161 189 148 144 228 199 169 129 104 121 106 100 81 37 10 40 48 62 77 66 79 63 51 60 36 47
145 122 126 115 86 76 92 121 131 121 141 147 127 164 158 157 138 138 141 151 207 168 150 133 98 92 71 58 49 53 75 88 86 72 81 74 71 70 68 63 86 78 66
160 132 134 119 86 84 98 123 137 136 163 162 172 195 207 163 145 180 162 156 124 94 100 78 81 64 72 80 96 99 90 75 65 65 72 90 78 70 66 75 79 71 77
147 163 162 116 89 79 77 92 152 173 172 174 180 181 161 164 179 170 151 117 91 82 89 105 97 106 123 116 111 104 85 62 52 55 57 81 86 75 20 57 69 55 74
162 139 123 109 102 89 137 169 221 247 221 187 170 176 156 170 153 143 120 91 96 90 97 108 108 107 106 102 109 77 55 56 43 37 63 112 84 58 44 44 84 94 85
126 103 120 122 153 228 190 192 208 213 193 197 193 184 181 129 133 122 132 112 104 99 109 111 102 97 95 90 81 80 71 50 25 21 34 54 50 62 61 15 68 51 63
100 114 129 150 192 220 220 203 176 172 163 165 152 159 149 185 180 188 181 160 116 97 101 120 105 108 78 75 90 101 77 71 57 56 81 3 66 65 58 31 117 138 38
126 120 137 144 179 251 218 212 187 172 150 133 133 133 123 166 158 138 136 118 81 61 81 92 102 114 83 89 114 77 69 98 122 140 79 44 51 39 40 8 42 111 98
116 114 124 143 197 221 198 225 221 188 169 150 140 130 121 143 129 136 121 81 66 73 76 90 96 78 92 99 103 86 95 125 139 133 103 63 61 40 74 96 41 56 43
78 116 138 159 198 205 208 241 230 203 181 143 129 128 131 150 139 144 103 69 67 72 56 46 41 42 50 50 32 53 50 62 91 104 138 100 57 61 70 118 87 76 38
88 112 156 170 164 187 181 201 206 198 164 134 125 152 148 133 139 104 85 91 81 70 72 67 67 63 95 72 25 48 34 26 65 144 139 99 39 37 11 36 33 43 10

GFSMA_con_3kmhel_030.txt.gz
Helicity
127 122 137 136 153 154 157 158 145 157 183 170 176 181 169 151 150 142 139 100 105 95 112 143 135 136 129 125 112 118 98 88 87 94 75 89 132 163 169 149 177 154 159
103 119 148 147 143 112 124 152 157 142 135 149 165 157 129 139 152 156 140 146 93 96 130 131 150 138 136 125 125 93 65 72 98 117 124 119 110 118 132 153 143 155 154
129 120 135 161 158 137 146 134 134 143 153 139 136 118 128 150 141 152 134 127 113 119 160 161 158 157 158 145 115 82 71 51 61 68 116 102 69 77 96 110 130 139 137
153 125 170 155 144 138 120 115 113 107 93 99 109 120 114 109 147 138 150 167 192 169 164 201 247 200 192 182 180 174 172 165 77 38 107 66 53 33 41 79 121 135 144
176 172 163 138 141 134 120 91 98 76 68 93 96 94 79 127 142 160 188 175 213 224 189 293 300 283 240 200 180 191 214 190 159 138 49 55 25 -31 -27 89 112 162 171
150 173 142 139 126 104 99 92 98 105 96 88 78 93 83 114 181 189 168 176 184 225 307 321 271 235 226 226 250 238 198 183 193 159 121 73 -1 -8 11 39 167 180 197
159 146 133 126 115 72 91 96 100 102 89 99 94 97 88 148 156 170 154 148 180 205 239 249 237 197 186 226 227 216 183 143 82 36 -14 8 23 88 134 141 126 226 230
144 146 135 93 78 114 124 136 151 135 113 109 116 96 94 118 115 130 128 146 179 174 193 183 174 179 161 171 166 199 164 108 93 80 82 54 43 43 99 127 142 148 210
190 190 155 132 194 194 168 159 122 121 120 117 134 151 146 130 122 72 106 127 167 154 144 148 174 187 161 132 161 169 209 151 137 110 68 27 10 9 38 81 109 128 137
202 197 236 227 265 229 215 174 163 145 155 133 158 161 158 165 132 140 137 173 187 171 162 137 119 97 105 120 118 100 82 51 83 80 71 40 26 17 17 31 64 88 115
285 283 236 313 273 218 202 209 184 186 177 187 188 181 173 174 185 202 170 162 202 154 147 137 119 106 107 67 82 49 55 22 87 101 74 48 30 27 36 51 44 43 78
316 280 264 270 242 208 208 189 183 168 164 172 179 179 202 210 212 214 212 169 200 182 158 122 112 96 106 88 77 90 98 155 128 101 79 59 43 35 40 46 50 48 51
338 327 265 221 188 201 199 159 134 143 161 171 166 171 182 199 217 218 238 207 241 218 187 147 89 87 100 83 92 109 140 130 104 81 68 56 42 22 24 35 54 56 44
311 216 217 169 192 147 122 132 141 167 168 161 137 139 149 132 171 229 257 262 241 236 239 187 98 106 108 120 138 137 101 109 80 46 31 20 11 15 36 39 46 49 54
235 256 355 181 174 121 125 139 150 161 151 143 121 114 126 121 170 191 175 185 218 272 189 122 72 142 118 112 102 85 65 37 46 48 38 44 72 72 71 75 72 74 68
316 241 158 179 189 121 116 132 132 121 118 112 120 117 134 159 158 148 132 153 177 190 188 132 98 97 82 61 54 69 63 65 68 74 112 100 100 108 101 79 65 56 58
289 286 140 235 148 112 110 106 90 100 112 119 140 137 144 152 135 121 126 145 148 138 140 113 109 79 63 41 51 75 90 103 101 103 98 98 96 104 102 88 72 67 76
200 220 161 167 138 125 96 135 112 128 132 140 170 179 176 169 163 153 148 142 140 135 130 115 101 79 43 52 79 97 107 104 87 55 69 71 86 91 97 81 58 67 82
266 242 201 187 152 129 133 79 90 137 181 201 173 162 153 152 147 164 152 149 145 125 112 121 109 93 76 80 78 86 87 72 60 50 50 48 71 107 130 108 98 57 84
425 376 190 156 150 161 130 140 175 200 192 204 175 167 156 145 140 132 145 142 126 119 112 107 112 96 75 59 85 76 51 67 64 80 83 55 88 84 71 78 75 46 112
550 394 210 119 182 176 186 204 204 204 204 200 197 188 156 125 106 147 160 127 126 112 97 107 98 74 51 36 43 55 75 70 83 108 86 87 102 92 81 81 68 32 73
726 253 162 149 141 176 180 195 220 200 190 186 172 159 145 152 158 176 172 144 119 98 96 97 92 71 72 59 64 68 82 81 71 96 127 122 109 86 96 88 50 32 107
178 149 141 99 109 147 188 203 210 208 197 183 173 154 133 149 149 148 137 125 107 98 91 107 94 94 55 56 59 64 84 99 90 113 104 73 114 86 94 77 47 39 46
128 157 91 77 130 149 174 193 217 219 201 182 167 141 134 137 145 137 123 108 91 84 85 94 102 81 83 75 83 78 72 52 43 70 107 100 130 79 67 137 92 81 41
159 79 92 107 126 145 173 189 223 225 219 176 159 139 130 148 134 123 110 88 70 77 79 68 62 42 31 30 55 70 50 30 3 15 114 137 148 93 75 85 85 107 102
111 107 105 110 123 144 159 175 216 251 212 184 152 136 127 138 128 103 101 84 77 74 81 83 97 74 61 52 46 81 62 38 32 24 83 116 128 88 8 37 44 41 27

GFSMA_con_3kmhel_033.txt.gz
Helicity
117 124 119 126 140 141 171 174 172 170 164 165 163 159 168 172 167 155 156 168 119 101 103 122 112 81 99 112 111 80 49 37 62 69 76 70 89 115 130 124 115 98 97
112 119 141 150 152 187 186 166 152 153 155 158 171 155 160 167 179 171 154 144 144 109 118 144 144 137 121 99 73 46 18 50 34 64 88 79 74 85 116 128 139 125 89
154 181 189 179 196 205 183 157 134 130 145 150 155 140 139 155 181 179 156 141 139 165 171 211 208 178 175 142 89 76 49 33 38 9 -9 27 64 69 52 70 92 131 152
193 253 255 225 213 180 142 135 119 131 131 133 115 111 108 144 157 142 136 120 100 111 260 286 235 235 211 181 166 137 132 124 112 48 38 62 -32 -36 -20 19 26 71 153
204 233 219 184 167 165 140 99 98 88 89 73 58 59 81 105 129 138 143 140 149 148 189 250 254 225 183 167 162 151 132 98 71 136 171 88 37 -2 -42 -84 -58 40 60
205 209 170 167 173 135 101 92 77 35 34 26 61 69 94 103 153 176 156 126 138 174 206 223 215 207 256 247 221 211 205 183 152 123 80 35 44 36 37 66 49 -29 70
172 176 163 152 112 111 105 56 9 22 83 21 37 76 88 115 158 158 155 126 135 150 179 189 179 189 205 253 248 220 188 169 181 136 119 164 85 52 31 96 167 187 112
169 157 138 122 121 122 50 45 57 32 32 50 72 76 109 124 153 140 141 144 151 175 195 177 159 149 143 149 150 175 169 133 132 132 113 82 57 61 68 101 121 151 171
157 161 145 128 138 110 84 105 101 95 95 106 100 131 156 151 168 147 170 127 96 130 140 150 142 136 117 117 115 128 116 104 93 71 71 68 51 46 62 96 105 103 114
203 172 175 196 191 174 118 122 122 122 145 133 166 166 177 197 188 236 177 125 148 156 147 134 129 126 120 96 90 73 56 72 51 44 67 86 90 87 75 78 69 60 65
253 217 194 178 175 111 180 276 140 162 155 173 185 189 199 199 201 254 258 196 190 151 157 147 132 114 117 118 91 93 97 92 76 101 100 103 100 93 77 73 75 57 42
280 297 286 271 221 157 170 248 200 224 149 177 175 165 212 229 209 223 234 200 216 179 169 173 146 126 141 126 119 131 165 161 159 159 145 131 103 85 71 59 45 30 22
381 350 357 291 153 181 247 216 199 210 171 193 166 167 182 173 191 206 221 220 217 176 189 184 145 202 191 109 114 152 167 160 145 120 104 93 86 70 51 38 30 31 32
411 418 301 99 125 359 236 228 216 190 154 142 157 173 176 140 146 168 204 182 166 170 192 156 176 191 130 82 109 129 120 127 115 96 93 90 76 65 50 42 44 52 68
423 243 230 334 241 282 181 163 161 169 183 198 185 175 147 122 136 160 169 167 184 191 191 134 120 117 87 65 77 86 99 96 89 92 81 80 100 86 78 77 70 73 74
387 233 345 322 255 213 192 168 146 174 185 181 157 139 149 137 136 157 150 162 165 169 196 113 95 102 77 63 59 78 81 66 63 77 96 109 102 116 112 91 81 75 66
352 333 264 271 240 217 214 134 120 145 168 147 134 122 112 150 148 140 150 154 157 143 151 132 105 71 74 72 69 86 75 74 77 82 83 87 86 83 77 86 69 58 59
282 263 278 286 264 220 168 114 142 142 141 146 143 151 132 164 160 170 162 144 160 163 157 135 109 89 89 85 83 83 72 69 79 62 62 54 44 44 53 69 97 95 80
310 304 319 355 348 224 130 138 147 130 129 141 153 160 153 163 166 162 158 155 161 173 170 158 135 126 119 107 93 82 61 63 67 43 48 66 60 58 60 81 84 84 84
389 366 415 461 351 128 149 154 148 159 153 153 164 184 169 156 149 153 147 145 163 162 156 148 139 132 132 100 91 58 40 58 52 74 106 71 45 41 30 44 49 49 53
554 643 632 415 138 172 164 136 182 193 184 205 205 191 187 168 133 141 171 150 167 161 143 139 133 135 109 88 76 68 49 45 51 88 93 95 113 112 100 44 45 37 42
848 761 362 161 180 168 103 147 210 222 218 217 211 201 189 156 150 149 132 142 161 153 136 148 146 139 112 97 88 65 60 48 39 62 83 84 114 107 102 82 26 25 31
634 380 188 186 174 113 104 139 201 239 231 228 227 208 190 171 154 153 149 156 136 110 104 154 157 142 128 98 81 62 55 68 75 85 77 47 92 91 109 70 43 48 49
242 196 216 158 132 105 105 127 188 243 241 235 228 202 182 160 148 151 165 151 121 111 109 131 142 124 123 98 103 77 50 35 54 60 83 82 82 120 105 101 58 30 43
201 219 164 149 116 97 98 131 214 249 257 233 227 206 188 161 120 113 169 142 105 90 87 79 81 79 83 74 61 83 56 35 21 32 92 83 77 115 100 98 66 32 23
156 167 118 105 96 107 103 116 187 288 276 243 229 205 154 169 121 112 160 139 108 82 81 79 90 100 112 107 64 90 79 52 38 26 74 44 71 80 83 71 61 39 27

GFSMA_con_3kmhel_039.txt.gz
Helicity
75 74 92 98 100 105 100 110 114 103 106 110 99 94 97 98 90 80 90 124 136 125 112 131 168 155 136 137 121 93 104 72 44 13 7 21 25 64 96 80 59 67 64
63 92 125 133 126 109 110 121 109 102 105 104 115 109 103 94 85 77 94 116 146 138 107 116 165 199 163 139 129 87 69 17 26 -31 -45 -53 -60 -5 17 3 13 18 15
81 116 143 139 124 118 128 122 116 111 113 108 107 95 96 108 121 118 103 103 98 155 200 204 208 196 169 150 107 60 23 37 35 -43 -43 -39 -7 -6 -45 -55 -60 -82 -55
107 130 122 130 131 112 113 120 123 119 108 98 83 81 104 116 117 111 107 93 82 90 150 223 231 236 236 224 176 127 121 93 48 36 23 -3 36 2 -9 -29 -68 -92 -67
104 121 137 145 132 139 135 130 132 116 105 89 62 70 83 92 105 104 118 106 81 81 95 155 213 240 219 200 177 160 144 124 115 109 91 47 5 3 11 2 -33 -59 -67
114 154 168 173 163 164 162 160 156 141 127 95 36 19 44 71 101 120 87 68 98 107 114 127 157 192 220 233 235 216 189 153 134 136 135 129 133 136 107 34 -18 -32 -45
149 177 196 199 186 187 195 174 158 155 122 62 -41 -37 18 73 76 98 57 60 101 91 68 70 120 143 147 181 194 182 154 160 177 170 163 162 152 126 87 45 7 0 -3
160 189 221 213 215 219 195 177 155 126 92 31 5 -38 56 64 70 98 121 69 90 94 65 96 130 124 139 152 182 207 184 155 130 125 132 122 101 79 68 61 50 46 41
179 199 227 236 234 217 217 192 151 106 55 13 -49 3 99 161 159 148 133 128 144 101 93 106 136 153 174 167 183 181 233 220 149 122 106 77 72 70 46 32 30 32 39
218 218 249 251 253 251 231 188 121 59 -3 -52 14 54 151 150 174 180 181 154 128 107 109 139 161 194 200 198 227 222 205 192 161 116 100 96 93 78 64 46 34 31 40
256 255 263 263 272 251 219 173 130 58 -8 92 98 156 143 176 177 165 148 155 141 131 164 190 191 181 179 196 210 251 230 211 190 156 128 98 81 64 48 43 40 31 39
298 277 270 272 281 272 254 236 188 27 36 106 168 137 142 156 161 161 157 165 174 173 140 129 131 151 166 198 211 207 177 153 131 105 92 80 62 51 49 43 45 49 56
353 298 305 358 320 318 263 161 74 30 98 126 116 128 138 137 160 174 178 158 174 140 168 161 126 139 166 185 172 172 130 106 86 74 79 79 78 82 86 79 69 59 54
339 350 362 349 324 270 180 99 90 127 135 125 130 147 158 168 171 143 143 143 140 148 183 161 131 123 146 161 159 113 90 69 70 82 84 87 88 88 85 75 79 66 56
344 361 358 334 274 217 125 87 123 163 137 150 163 152 167 165 126 123 143 161 160 176 157 180 152 165 153 144 134 106 99 83 72 66 74 71 69 74 73 75 65 67 74
349 374 355 310 276 150 177 226 222 203 179 186 133 160 138 117 129 134 136 158 169 182 208 178 166 162 146 137 127 108 92 73 61 67 70 71 62 48 48 56 55 46 41
330 328 342 344 238 128 174 303 395 269 118 99 129 122 108 121 134 130 140 147 158 184 172 148 188 149 128 116 111 107 95 94 93 74 69 54 46 45 48 39 24 15 15
288 315 325 326 332 134 310 409 458 149 74 104 111 131 116 127 112 125 130 129 146 156 157 140 129 145 125 118 107 97 96 99 105 92 62 44 50 56 38 25 11 4 4
292 371 395 328 227 318 654 500 247 75 77 116 122 152 117 132 113 127 130 139 154 169 169 170 130 155 125 115 96 88 87 88 100 73 46 54 71 45 26 6 -6 -14 -7
292 328 502 544 476 532 595 412 103 88 110 130 145 148 135 141 123 124 140 138 156 163 165 167 139 134 120 104 94 78 75 78 92 73 56 91 58 29 4 -11 -18 -21 -17
441 383 631 762 646 744 403 156 112 103 115 121 143 159 153 154 148 142 166 146 159 158 156 148 134 130 107 95 78 72 77 75 69 70 79 88 57 43 29 9 -14 -21 -5
476 678 809 840 672 332 231 113 123 134 112 142 137 154 167 186 165 165 165 157 156 145 137 144 134 120 90 85 72 70 75 73 64 68 80 55 51 39 38 20 -3 -8 -12
632 908 571 290 274 196 125 109 122 137 117 119 130 153 176 214 209 188 178 185 181 161 139 123 127 102 91 73 65 56 64 72 66 68 80 72 47 32 39 17 1 -20 -18
289 213 189 183 171 143 133 117 105 109 124 127 136 142 165 186 215 202 199 202 166 157 145 147 120 95 92 82 65 57 54 64 80 80 77 104 50 31 16 21 -1 1 0
124 123 166 150 117 93 112 97 115 144 140 136 143 152 175 188 210 197 230 206 171 149 146 119 109 94 94 71 43 53 58 71 76 71 68 111 55 23 27 34 25 21 4
123 112 94 98 111 113 102 108 137 165 155 160 150 162 183 171 180 223 224 216 192 130 150 138 128 109 89 75 58 54 63 79 78 80 108 87 37 44 16 26 30 12 11

GFSMA_con_3kmhel_042.txt.gz
Helicity
52 39 56 57 69 72 71 68 69 63 62 62 59 53 52 52 50 56 79 106 89 73 70 78 131 132 125 120 124 125 95 79 92 65 19 -6 11 33 61 48 52 81 65
53 58 61 75 90 80 79 61 64 67 74 66 64 63 54 50 59 53 61 105 99 111 86 70 120 154 144 126 123 110 95 87 64 15 -29 -6 -42 -47 -64 -38 13 28 32
49 58 77 95 95 91 90 90 80 88 84 75 75 65 46 49 60 53 52 70 99 123 140 145 154 174 154 140 132 102 77 68 62 35 67 16 10 -17 -50 -25 -40 -63 -52
46 66 87 96 98 93 86 86 90 101 103 96 84 69 31 30 51 52 64 60 87 63 110 160 204 194 209 218 195 161 137 113 106 95 85 56 29 25 -1 -13 16 -18 -28
61 73 93 108 107 110 112 108 118 127 122 95 77 61 43 15 22 77 63 73 97 83 87 149 152 183 184 178 179 190 187 177 162 158 152 148 150 126 109 84 58 18 -1
63 82 100 124 123 137 135 139 151 138 124 115 97 85 61 23 30 60 96 79 102 94 71 72 83 119 169 174 181 192 187 176 174 180 197 193 191 189 189 151 68 41 46
60 77 105 137 140 135 154 162 154 136 133 123 93 51 51 34 69 53 91 104 136 92 100 68 51 103 133 134 111 184 174 189 196 205 200 203 202 173 142 107 79 64 47
82 101 120 136 140 174 178 173 160 166 165 138 115 76 48 125 58 107 105 120 130 102 92 86 101 114 124 130 257 233 238 201 170 158 162 164 145 122 106 105 104 83 69
96 113 125 148 166 172 193 192 182 177 176 150 80 107 146 75 172 204 163 112 154 106 134 115 107 87 91 94 125 116 235 198 197 189 183 169 156 156 147 128 117 111 89
120 142 160 179 183 205 202 181 187 201 194 146 165 76 53 138 157 175 205 98 154 132 149 109 78 92 109 104 170 202 293 266 231 214 195 185 161 133 111 98 87 76 65
178 187 187 198 191 202 209 205 237 189 182 148 94 105 81 117 124 162 146 176 193 165 148 120 127 121 108 131 121 255 292 212 188 182 172 151 127 97 70 61 58 50 48
195 222 217 220 189 207 225 241 213 178 162 86 73 105 125 151 130 141 140 139 192 143 148 125 105 118 142 147 173 252 215 179 167 140 118 99 88 83 82 81 74 68 62
278 274 260 245 220 252 240 256 235 161 164 75 127 129 133 123 153 146 148 173 206 174 133 154 114 134 134 149 136 241 141 123 114 104 91 83 84 87 89 82 70 59 53
280 284 275 265 235 242 269 230 210 161 90 165 185 146 118 142 126 130 181 220 217 169 113 145 161 139 148 124 201 198 98 156 126 110 80 76 86 83 75 71 75 76 86
286 281 265 251 262 279 255 241 246 156 90 177 187 191 138 117 150 165 163 140 179 182 142 141 159 144 168 120 152 169 97 93 137 84 72 81 75 71 69 72 74 70 66
245 215 205 227 285 282 277 335 241 142 174 273 157 132 108 135 141 143 125 121 124 125 144 135 125 137 149 122 139 150 93 93 61 77 72 73 64 60 61 61 52 45 45
223 269 230 293 321 334 370 300 265 438 247 182 82 83 106 145 132 128 123 126 123 130 140 103 129 102 172 145 111 110 104 92 83 86 107 87 70 71 60 40 34 32 29
250 170 214 304 324 319 298 315 359 347 264 88 71 95 118 139 151 114 119 120 122 124 130 108 134 130 126 164 126 108 96 88 76 67 95 78 72 61 48 40 28 24 14
170 171 255 310 351 264 319 393 629 458 112 82 91 103 134 124 141 129 123 132 137 133 137 146 139 131 125 136 119 110 95 74 64 67 78 88 112 71 57 34 13 3 5
165 284 384 330 377 465 439 746 342 171 118 85 99 119 102 109 125 130 126 138 145 136 139 151 149 135 124 119 128 106 92 87 64 69 69 103 126 75 82 50 29 -1 -7
233 321 355 511 509 492 603 256 213 202 117 104 114 104 105 112 141 156 163 154 154 157 166 153 152 145 126 124 126 124 101 77 59 66 70 93 97 71 63 62 56 49 22
282 297 368 393 365 332 362 271 236 183 123 114 108 95 113 140 164 202 210 186 160 171 169 165 153 146 116 117 123 110 98 78 67 71 70 78 77 75 62 52 54 16 -13
265 221 250 179 187 191 221 183 159 145 120 97 105 107 110 121 190 152 196 215 219 210 192 136 152 134 118 104 115 99 85 77 65 61 60 71 64 82 64 46 41 12 -10
169 119 92 108 120 125 155 108 124 109 105 93 106 108 111 115 122 190 138 168 206 178 186 185 139 113 112 106 111 100 87 63 53 57 60 75 58 79 72 33 13 30 37
93 95 142 132 105 86 80 112 126 131 137 130 138 125 137 138 128 202 194 182 185 186 207 266 186 177 187 171 125 120 102 80 64 57 59 72 65 52 70 31 33 72 23
85 76 69 74 87 82 99 117 133 153 163 173 155 159 184 173 133 196 217 200 198 163 143 209 208 151 146 128 126 123 94 81 65 55 55 81 60 53 49 27 44 34 34

GFSMA_con_3kmhel_048.txt.gz
Helicity
22 23 -20 16 4 10 28 37 70 45 60 56 50 46 28 30 19 53 40 81 113 115 99 97 139 134 128 110 109 108 98 88 79 66 55 49 21 -3 -23 -4 -2 25 67
53 -16 27 28 45 90 62 74 53 63 30 62 64 51 43 53 58 57 83 101 109 116 85 93 118 154 147 134 122 116 108 99 87 83 54 21 0 -15 -6 13 -2 -4 -16
2 29 59 54 89 75 89 63 105 63 88 59 87 58 65 66 76 70 81 143 146 139 122 154 154 163 166 160 141 119 95 54 65 46 79 80 64 44 47 35 -9 -13 -18
-9 -1 65 76 73 108 116 131 100 104 58 69 116 85 105 99 127 85 67 128 224 192 164 190 212 236 240 210 190 144 107 112 92 125 118 119 121 140 149 159 131 92 54
-36 -15 60 35 133 130 97 103 74 84 88 120 121 118 136 112 140 82 158 174 124 213 218 179 152 164 165 186 205 179 169 154 151 128 137 135 148 156 147 139 130 115 90
-10 15 13 72 128 98 106 122 130 118 139 118 86 181 173 156 131 132 168 148 164 168 128 200 145 135 147 145 137 127 115 108 125 156 159 150 141 140 146 136 127 115 98
50 55 32 132 124 94 116 143 152 189 142 201 156 117 129 181 184 190 166 158 124 192 125 147 127 143 204 168 142 182 165 156 169 172 155 152 155 145 129 112 99 113 121
94 77 43 147 128 96 153 197 213 196 138 184 158 170 165 177 212 147 154 189 172 149 167 139 144 144 178 215 243 229 247 249 202 176 154 149 140 138 135 134 131 128 100
73 68 60 134 165 110 196 246 212 161 162 228 170 212 214 172 171 174 165 179 223 210 192 138 187 198 173 166 209 272 291 262 217 208 153 135 129 123 107 103 106 111 114
69 49 103 129 200 197 223 279 212 160 164 238 257 194 165 216 214 219 185 166 207 257 201 170 135 214 245 211 215 348 358 289 229 187 164 146 126 111 116 123 118 109 103
108 77 120 174 217 267 244 239 214 183 198 285 340 289 194 195 183 211 161 166 190 214 163 156 214 299 332 214 345 342 320 231 177 159 129 114 107 116 121 117 109 97 79
127 158 125 192 252 277 208 241 283 306 348 302 260 201 209 272 271 224 356 266 249 242 221 192 304 302 261 225 276 308 304 253 167 138 111 106 110 117 112 103 85 76 72
129 115 140 192 280 271 261 290 380 409 321 268 189 221 275 253 302 380 278 259 258 169 156 208 241 238 237 246 353 364 300 189 128 102 86 79 72 73 83 81 79 69 64
127 115 260 306 312 319 304 339 407 397 280 215 199 243 256 326 354 225 266 293 239 208 208 240 230 201 204 239 306 274 261 169 146 134 134 94 57 73 65 72 61 44 46
256 351 349 330 306 311 318 364 451 382 214 171 236 307 314 256 224 210 148 185 253 258 288 237 229 203 213 228 243 260 230 226 245 199 136 96 82 71 62 61 37 36 43
245 312 290 292 300 318 409 410 397 315 224 322 311 478 332 172 172 168 178 209 234 267 299 247 218 172 174 143 162 219 260 243 229 197 144 96 100 84 61 47 32 31 37
279 287 272 261 293 340 425 425 295 292 381 453 506 527 202 85 151 165 171 198 214 251 259 260 227 191 195 202 217 219 234 267 262 188 152 124 126 114 97 63 44 34 31
268 254 226 245 302 424 468 392 321 334 370 509 429 212 111 139 148 153 173 197 215 202 249 228 234 230 199 187 217 216 228 248 277 228 191 153 139 154 122 88 73 63 54
260 282 311 345 353 406 397 328 303 273 540 331 221 189 117 128 134 151 147 194 207 193 215 280 299 282 272 260 241 242 254 251 243 207 157 143 137 146 100 112 98 92 104
377 381 337 324 363 385 384 236 324 281 335 258 211 206 152 134 123 130 135 141 148 191 215 278 299 319 303 279 267 294 283 279 271 259 266 211 142 104 100 90 79 100 112
327 329 337 348 350 318 259 243 270 266 227 198 204 166 125 96 68 91 121 149 165 177 194 238 288 333 338 311 294 250 274 284 281 288 255 188 169 169 150 83 74 74 90
261 276 280 295 307 280 268 272 239 196 212 209 168 133 116 79 81 88 114 139 177 220 238 254 239 244 270 281 268 245 253 279 260 249 218 176 192 157 114 117 78 98 91
289 282 266 250 225 204 190 155 171 176 145 125 116 106 106 102 100 121 136 150 158 175 223 286 296 261 229 227 222 200 200 248 244 222 220 172 163 146 137 98 86 81 44
260 234 212 194 202 205 167 144 139 124 110 105 113 115 121 130 148 170 190 212 230 247 252 262 243 216 209 217 241 211 198 231 207 211 189 152 148 162 123 107 82 76 51
223 264 234 210 188 157 150 112 113 108 136 151 137 138 162 182 207 232 250 265 249 248 192 155 130 137 168 186 254 294 314 298 294 229 192 141 125 152 125 98 80 76 81
218 195 165 130 159 254 296 262 187 193 203 180 152 132 127 144 179 232 239 247 244 241 213 175 153 154 207 212 243 244 235 293 309 190 179 139 113 153 93 76 91 62 61